TimeCDT,TemperatureF,Dew PointF,Humidity,Sea Level PressureIn,VisibilityMPH,Wind Direction,Wind SpeedMPH,Gust SpeedMPH,PrecipitationIn,Events,Conditions,WindDirDegrees,DateUTC
12:52 AM,78.1,72.0,81,30.19,10.0,SSW,4.6,-,N/A,,Clear,210,2013-07-18 05:52:00
1:52 AM,75.9,71.1,85,30.18,9.0,South,3.5,-,N/A,,Clear,180,2013-07-18 06:52:00
2:52 AM,75.9,71.1,85,30.17,9.0,SW,3.5,-,N/A,,Clear,220,2013-07-18 07:52:00
3:52 AM,73.9,71.1,91,30.17,9.0,Calm,Calm,-,N/A,,Clear,0,2013-07-18 08:52:00
4:52 AM,73.0,70.0,90,30.16,8.0,Calm,Calm,-,N/A,,Clear,0,2013-07-18 09:52:00
5:52 AM,71.1,70.0,96,30.16,5.0,Calm,Calm,-,N/A,,Clear,0,2013-07-18 10:52:00
6:52 AM,77.0,73.0,88,30.15,6.0,Calm,Calm,-,N/A,,Clear,0,2013-07-18 11:52:00
7:52 AM,81.0,72.0,74,30.15,10.0,SW,6.9,-,N/A,,Clear,230,2013-07-18 12:52:00
8:52 AM,84.0,73.0,69,30.14,10.0,WSW,5.8,-,N/A,,Clear,240,2013-07-18 13:52:00
9:52 AM,87.1,73.0,63,30.14,10.0,WSW,8.1,-,N/A,,Clear,250,2013-07-18 14:52:00
10:52 AM,88.0,71.1,57,30.13,10.0,West,10.4,-,N/A,,Clear,270,2013-07-18 15:52:00
11:52 AM,89.1,72.0,57,30.12,10.0,Variable,6.9,-,N/A,,Partly Cloudy,0,2013-07-18 16:52:00
12:52 PM,91.0,72.0,53,30.10,10.0,WSW,8.1,-,N/A,,Clear,250,2013-07-18 17:52:00
1:52 PM,91.9,71.1,50,30.08,10.0,SSW,11.5,17.3,N/A,,Partly Cloudy,200,2013-07-18 18:52:00
2:52 PM,91.9,71.1,50,30.05,10.0,WSW,11.5,-,N/A,,Partly Cloudy,250,2013-07-18 19:52:00
3:52 PM,91.9,70.0,48,30.03,10.0,SW,8.1,17.3,N/A,,Partly Cloudy,230,2013-07-18 20:52:00
4:52 PM,91.9,71.1,50,30.01,10.0,SSW,10.4,-,N/A,,Partly Cloudy,200,2013-07-18 21:52:00
5:52 PM,91.0,70.0,50,29.98,10.0,SW,10.4,-,N/A,,Clear,220,2013-07-18 22:52:00
6:52 PM,90.0,71.1,54,29.97,10.0,SW,10.4,-,N/A,,Clear,220,2013-07-18 23:52:00
7:52 PM,87.1,72.0,61,29.96,10.0,SSW,6.9,-,N/A,,Clear,200,2013-07-19 00:52:00
8:52 PM,84.9,72.0,65,29.96,10.0,SSW,8.1,-,N/A,,Clear,200,2013-07-19 01:52:00
9:52 PM,84.0,72.0,67,29.96,10.0,SSW,8.1,-,N/A,,Clear,200,2013-07-19 02:52:00
10:52 PM,82.0,72.0,71,29.96,10.0,SSW,9.2,-,N/A,,Clear,200,2013-07-19 03:52:00
11:52 PM,82.0,71.1,69,29.95,10.0,SSW,8.1,-,N/A,,Clear,210,2013-07-19 04:52:00